Content
SEND FEEDBACK

Daily
Averages
Monthly
Summary
Canada

VANCOUVER, BRITISH COLUMBIA


Home > North America > Canada > British Columbia
Elevation: 7 feet     Latitude: 49 11N     Longitude: 123 10W

WEATHER
 
SELECT A DAY
Number of Records: 252,242;   Date Range: 5/15/97 - 9/30/14
 
SHARE

PRINT THIS DATA

[ ← Previous Day ]
WEATHER ALMANAC - FEBRUARY 18, 2013
[ Next Day → ]
[ °C ]   °F
Weather ElementAverageHighLow
Temperature40.9 °F44.6 °F (1:15 pm)35.6 °F (12:35 am)
Dewpoint35.8 °F37.4 °F (2:55 am)32 °F (10:15 pm)
Humidity83 %100 % (12:35 am)66 % (5:35 pm)
Barometer29.90 in30.09 in (12:35 am)29.75 in (9:55 pm)
Wind Speed3 mph10.4 mph (11:15 am)
Weather ElementAverage
Visibility9.9 mi
Wind DirectionENE (70.9 °)

Weather ElementTotal
Precipitation---
Heating Degree Days24.9 (Base 65)
Averaged from 67 records on February 18, 2013
WEATHER CONDITIONS BREAKOUT
WIND DIRECTION BREAKOUT
WEATHER BY HOUR - FEBRUARY 18, 2013
[ °C ]   °F
Local TimeTemperatureDewpointHumidityBarometerVisibilityWind DirectionWind SpeedGust SpeedPrecipitationEventsConditions
12:35 AM35.6 °F35.6 °F100 %30.09 in10.0 miCalmMostly Cloudy
12:55 AM35.6 °F35.6 °F100 %30.08 in10.0 miCalmMostly Cloudy
1:15 AM35.6 °F35.6 °F100 %30.08 in10.0 miCalmPartly Cloudy
1:35 AM35.6 °F33.8 °F93 %30.07 in10.0 miCalmPartly Cloudy
1:55 AM35.6 °F35.6 °F100 %30.07 in10.0 miCalmMostly Cloudy
2:15 AM35.6 °F35.6 °F100 %30.06 in9.0 miCalmOvercast
2:35 AM35.6 °F35.6 °F100 %30.06 in10.0 miCalmOvercast
2:55 AM37.4 °F37.4 °F100 %30.05 in10.0 miCalmOvercast
3:15 AM37.4 °F37.4 °F100 %30.04 in10.0 miCalmMostly Cloudy
3:35 AM37.4 °F37.4 °F100 %30.03 in10.0 miCalmMostly Cloudy
3:55 AM37.4 °F37.4 °F100 %30.03 in10.0 miCalmOvercast
4:15 AM37.4 °F37.4 °F100 %30.02 in10.0 miCalmOvercast
4:35 AM37.4 °F37.4 °F100 %30.01 in10.0 miCalmOvercast
4:55 AM37.4 °F37.4 °F100 %30.01 in10.0 miCalmMostly Cloudy
5:15 AM37.4 °F37.4 °F100 %30.00 in10.0 miCalmScattered Clouds
5:35 AM37.4 °F37.4 °F100 %30.00 in10.0 miCalmMostly Cloudy
5:55 AM37.4 °F37.4 °F100 %29.99 in10.0 miCalmMostly Cloudy
6:15 AM37.4 °F37.4 °F100 %29.99 in10.0 miCalmOvercast
6:35 AM37.4 °F37.4 °F100 %29.98 in10.0 miCalmOvercast
6:55 AM39.2 °F37.4 °F93 %29.98 in10.0 miCalmMostly Cloudy
7:15 AM39.2 °F35.6 °F87 %29.98 in10.0 miCalmMostly Cloudy
7:35 AM39.2 °F35.6 °F87 %29.97 in10.0 miCalmMostly Cloudy
7:55 AM39.2 °F35.6 °F87 %29.97 in10.0 miCalmMostly Cloudy
8:15 AM39.2 °F35.6 °F87 %29.97 in7.0 miNorthRainLight Rain
8:35 AM39.2 °F37.4 °F93 %29.96 in10.0 miCalmScattered Clouds
8:55 AM39.2 °F37.4 °F93 %29.95 in10.0 miCalmMostly Cloudy
9:15 AM41.0 °F37.4 °F87 %29.95 in10.0 miCalmMostly Cloudy
9:35 AM39.2 °F35.6 °F87 %29.95 in10.0 miCalmOvercast
10:15 AM41.0 °F35.6 °F81 %29.94 in10.0 miSouth (180°)6.9 mphMostly Cloudy
10:35 AM41.0 °F35.6 °F81 %29.94 in10.0 miSouth (170°)4.6 mphMostly Cloudy
10:55 AM41.0 °F35.6 °F81 %29.93 in10.0 miSouth (180°)6.9 mphScattered Clouds
11:15 AM41.0 °F35.6 °F81 %29.93 in10.0 miSSW (200°)10.4 mphClear
11:35 AM41.0 °F35.6 °F81 %29.92 in10.0 miSouth (180°)5.8 mphClear
11:55 AM42.8 °F35.6 °F76 %29.91 in10.0 miSouth (170°)3.5 mphScattered Clouds
12:15 PM42.8 °F35.6 °F76 %29.91 in10.0 miSSE (160°)3.5 mphMostly Cloudy
12:35 PM42.8 °F35.6 °F76 %29.90 in10.0 miSSE (160°)4.6 mphMostly Cloudy
12:55 PM42.8 °F35.6 °F76 %29.89 in10.0 miSSE (160°)3.5 mphOvercast
1:15 PM44.6 °F35.6 °F71 %29.88 in10.0 miSSE (160°)4.6 mphOvercast
1:35 PM44.6 °F35.6 °F71 %29.87 in10.0 miSSE (160°)4.6 mphMostly Cloudy
1:55 PM44.6 °F35.6 °F71 %29.87 in10.0 miSSE (160°)6.9 mphMostly Cloudy
2:15 PM44.6 °F35.6 °F71 %29.86 in10.0 miSSE (160°)5.8 mphOvercast
2:35 PM42.8 °F35.6 °F76 %29.85 in10.0 miSouth (180°)6.9 mphScattered Clouds
2:55 PM44.6 °F35.6 °F71 %29.85 in10.0 miSouth (180°)4.6 mphScattered Clouds
3:15 PM44.6 °F35.6 °F71 %29.84 in10.0 miSouth (170°)5.8 mphScattered Clouds
3:35 PM44.6 °F35.6 °F71 %29.84 in10.0 miSouth (180°)4.6 mphClear
3:55 PM44.6 °F35.6 °F71 %29.83 in10.0 miSSE (160°)5.8 mphClear
4:15 PM44.6 °F35.6 °F71 %29.82 in10.0 miSSE (160°)3.5 mphScattered Clouds
4:55 PM44.6 °F35.6 °F71 %29.81 in10.0 miCalmClear
5:15 PM44.6 °F35.6 °F71 %29.80 in10.0 miSSE (160°)4.6 mphScattered Clouds
5:35 PM44.6 °F33.8 °F66 %29.80 in10.0 miCalmMostly Cloudy
5:55 PM44.6 °F33.8 °F66 %29.79 in10.0 miENE (60°)9.2 mphOvercast
6:15 PM44.6 °F33.8 °F66 %29.79 in10.0 miSouth (190°)5.8 mphMostly Cloudy
6:35 PM44.6 °F35.6 °F71 %29.78 in10.0 miCalmOvercast
6:55 PM44.6 °F33.8 °F66 %29.78 in10.0 miEast (100°)4.6 mphOvercast
7:15 PM44.6 °F35.6 °F71 %29.78 in10.0 miEast (100°)3.5 mphOvercast
7:35 PM44.6 °F35.6 °F71 %29.77 in10.0 miEast (100°)4.6 mphOvercast
7:55 PM42.8 °F35.6 °F76 %29.77 in10.0 miENE (70°)3.5 mphOvercast
8:15 PM44.6 °F35.6 °F71 %29.77 in10.0 miESE (110°)5.8 mphOvercast
8:35 PM44.6 °F35.6 °F71 %29.76 in10.0 miEast (90°)4.6 mphMostly Cloudy
8:55 PM44.6 °F35.6 °F71 %29.76 in10.0 miNE (50°)4.6 mphMostly Cloudy
9:15 PM42.8 °F35.6 °F76 %29.76 in10.0 miEast (90°)6.9 mphMostly Cloudy
9:35 PM42.8 °F33.8 °F70 %29.76 in10.0 miEast (80°)3.5 mphMostly Cloudy
9:55 PM42.8 °F33.8 °F70 %29.75 in10.0 miENE (70°)5.8 mphMostly Cloudy
10:15 PM42.8 °F32.0 °F66 %29.75 in10.0 miEast (100°)5.8 mphPartly Cloudy
10:55 PM41.0 °F37.4 °F87 %29.75 in10.0 miNE (40°)5.8 mphScattered Clouds
11:15 PM41.0 °F35.6 °F81 %29.75 in10.0 miNE (40°)6.9 mphScattered Clouds
11:55 PM39.2 °F35.6 °F87 %29.75 in10.0 miENE (70°)6.9 mphClear
Hourly data recorded from CZBB, located miles away from Vancouver, British Columbia







STORIES FROM OUR PARTNERS